Home   Weather   Oranienburg   Past weeks

Flag for Germany Past Weather in Oranienburg, Brandenburg, Germany — Yesterday and Last 2 Weeks

Now
68 °F

Scattered clouds.


Feels Like: 68 °F
Forecast: 46 / 57 °F
Wind: 12 mph from Southwest

Location: Berlin-Tegel

Current Time: Sep 30, 2016 at 1:50:38 PM

Latest Report: Sep 30, 2016 at 1:20 PM


Visibility: N/A

Pressure: 29.92 "Hg

Humidity: 49%

Dew Point: 48 °F

Location of OranienburgLocation

Past Weather in Oranienburg — Graph

°F

Oranienburg Temperature Yesterday

Maximum temperature yesterday: 79 °F (at 3:20 PM)
Minimum temperature yesterday: 61 °F (at 4:50 AM)
Average temperature yesterday: 69 °F

High & Low Weather Summary for the Past Weeks

 TemperatureHumidityPressure
High82 °F (Sep 16, 4:20 PM)94% (Sep 24, 3:20 AM)30.30 "Hg (Sep 24, 3:20 AM)
Low45 °F (Sep 20, 6:50 AM)28% (Sep 15, 5:20 PM)29.80 "Hg (Sep 29, 6:50 PM)
Average62 °F62%30.09 "Hg
* Reported Sep 15 12:20 PM — Sep 30 12:20 PM, Oranienburg, Weather by CustomWeather, © 2016

Note: Actual official high and low records may vary slightly from our data, if they occured in-between our weather recording intervals... More about our weather records

Advertising

Oranienburg Weather History for the Previous 24 Hours

Scroll right to see more
 ConditionsComfort  
Time TempWeatherWind HumidityBarometerVisibility
12:20 PM
Fri, Sep 30
66 °FPartly sunny.14 mph56%29.92 "HgN/A
11:50 AM64 °FBroken clouds.15 mph64%29.92 "HgN/A
11:20 AM63 °FPartly sunny.15 mph64%29.92 "HgN/A
10:50 AM63 °FPartly sunny.12 mph73%29.92 "HgN/A
10:20 AM61 °FPartly sunny.10 mph77%29.92 "HgN/A
9:50 AM61 °FLight rain. Partly sunny.12 mph72%29.92 "HgN/A
9:20 AM59 °FLight rain. Partly sunny.12 mph82%29.92 "HgN/A
8:50 AM61 °FPartly sunny.10 mph72%29.89 "HgN/A
8:20 AM59 °FLight rain. Partly sunny.12 mph82%29.89 "HgN/A
7:50 AM59 °FLight rain. Partly sunny.10 mph77%29.89 "HgN/A
7:20 AM59 °FSunny.10 mph77%29.89 "Hg10 mi
6:50 AM59 °FClear.12 mph77%29.89 "Hg10 mi
6:20 AM61 °FClear.10 mph72%29.89 "Hg10 mi
5:50 AM59 °FClear.9 mph72%29.89 "Hg10 mi
5:20 AM59 °FClear.9 mph72%29.86 "Hg10 mi
4:50 AM59 °FPassing clouds.9 mph77%29.86 "HgN/A
4:20 AM59 °FPassing clouds.10 mph77%29.86 "HgN/A
3:50 AM59 °FPassing clouds.10 mph77%29.86 "HgN/A
3:20 AM57 °FLight rain. Passing clouds.7 mph88%29.89 "HgN/A
2:50 AM57 °FPassing clouds.7 mph82%29.89 "HgN/A
2:20 AM59 °FLight rain. Passing clouds.13 mph77%29.89 "HgN/A
1:50 AM59 °FLight rain. Passing clouds.15 mph77%29.89 "HgN/A
1:20 AM59 °FPassing clouds.16 mph82%29.86 "HgN/A
12:50 AM68 °FClear.13 mph60%29.83 "Hg10 mi
12:20 AM68 °FClear.10 mph60%29.83 "Hg10 mi
11:50 PM
Thu, Sep 29
66 °FClear.7 mph64%29.83 "Hg10 mi
11:20 PM66 °FClear.9 mph60%29.83 "Hg10 mi
10:50 PM70 °FClear.14 mph53%29.83 "Hg10 mi
10:20 PM70 °FClear.14 mph53%29.80 "Hg10 mi
9:50 PM72 °FClear.15 mph50%29.80 "Hg10 mi
9:20 PM72 °FClear.13 mph50%29.80 "Hg10 mi
8:50 PM72 °FClear.13 mph47%29.83 "Hg10 mi
8:20 PM72 °FClear.12 mph47%29.83 "Hg10 mi
7:50 PM72 °FClear.10 mph50%29.80 "Hg10 mi
7:20 PM72 °FClear.9 mph47%29.83 "Hg10 mi
6:50 PM73 °FClear.10 mph44%29.80 "Hg10 mi
6:20 PM75 °FSunny.10 mph41%29.83 "Hg10 mi
5:50 PM75 °FSunny.13 mph39%29.83 "Hg10 mi
5:20 PM75 °FSunny.14 mph36%29.83 "Hg10 mi
4:50 PM77 °FSunny.17 mph32%29.86 "Hg10 mi
4:20 PM77 °FSunny.16 mph32%29.86 "Hg10 mi
3:50 PM77 °FPassing clouds.17 mph34%29.86 "HgN/A
3:20 PM79 °FSunny.17 mph32%29.86 "Hg10 mi
2:50 PM77 °FSunny.18 mph34%29.89 "Hg10 mi
2:20 PM77 °FPassing clouds.17 mph34%29.89 "HgN/A
1:50 PM77 °FPassing clouds.20 mph30%29.92 "HgN/A
1:20 PM77 °FPassing clouds.16 mph32%29.95 "HgN/A
Weather by CustomWeather, © 2016

See weather overviewHow to use our weather pages